Location: Newark
(47.5833°N, 8.1500°E)
Time: 10:20:32
(UTC+00:00)

Altair - Pass Details

Date: 05 November 2020
Orbit: 1502 x 1682 km, 47.2° (Epoch: 25 November)

Event Time Altitude Azimuth Distance (km) Brightness Sun altitude
Exits shadow 04:42:02 20° 260° (W) 2,952 8.4 -16.4°
Maximum altitude 04:49:02 87° 173° (S) 1,551 7.5 -15.3°
Drops below altitude 10° 04:58:40 10° 86° (E) 3,796 10.9 -13.7°
Sets 05:01:48 0° 86° (E) 4,806 11.8 -13.1°
